Wetterdaten: Woche 10.12.12 - 16.12.12 (KW50)
Datum Zeit Temp. Innen Temp. Aussen Temp. 2 +5cm Bl.Temp 1 Feuchte Auss Feuchte 2 BlattFeu 1 Luftdruck Regen Sonnenschein T Regendauer ET UV Solar Windben Empfang
10.12.2012 00:00 10,4 C 3,5 C -15,7 C 0,4 C 0,0 C 94 % 0 % 0 lf 1005,2 hPa 0,0 l/m 0,00 h 0,00 h 0,000 mm 0,0 UV-I 0 W/m 17,4 km/h (3 Bft) 0,00 %
10.12.2012 01:00 10,5 C 3,8 C 11,0 C 0,9 C 0,0 C 95 % 0 % 0 lf 1004,8 hPa 0,6 l/m 0,00 h 0,00 h 0,000 mm 0,0 UV-I 0 W/m 20,3 km/h (4 Bft) 0,00 %
10.12.2012 02:00 10,6 C 4,0 C 16,7 C 1,4 C 0,0 C 96 % 0 % 0 lf 1004,9 hPa 0,1 l/m 0,00 h 0,00 h 0,000 mm 0,0 UV-I 0 W/m 19,1 km/h (3 Bft) 0,00 %
10.12.2012 03:00 10,7 C 4,2 C -7,3 C 1,4 C 0,0 C 95 % 0 % 0 lf 1005,4 hPa 0,1 l/m 0,00 h 0,00 h 0,000 mm 0,0 UV-I 0 W/m 16,8 km/h (3 Bft) 0,00 %
10.12.2012 04:00 10,7 C 4,0 C -22,8 C 1,1 C 0,0 C 95 % 0 % 0 lf 1005,4 hPa 0,0 l/m 0,00 h 0,00 h 0,000 mm 0,0 UV-I 0 W/m 15,6 km/h (3 Bft) 0,00 %
10.12.2012 05:00 10,8 C 4,0 C -21,5 C 1,2 C 0,0 C 94 % 0 % 0 lf 1005,7 hPa 0,0 l/m 0,00 h 0,00 h 0,000 mm 0,0 UV-I 0 W/m 14,7 km/h (3 Bft) 0,00 %
10.12.2012 06:00 10,8 C 3,9 C -12,5 C 1,3 C 0,0 C 94 % 0 % 0 lf 1006,1 hPa 0,0 l/m 0,00 h 0,00 h 0,000 mm 0,0 UV-I 0 W/m 11,1 km/h (2 Bft) 0,00 %
10.12.2012 07:00 10,8 C 3,8 C -17,6 C 3,5 C 0,0 C 93 % 0 % 0 lf 1006,6 hPa 0,0 l/m 0,00 h 0,00 h 0,000 mm 0,0 UV-I 0 W/m 10,8 km/h (2 Bft) 0,00 %
10.12.2012 08:00 10,9 C 3,6 C -19,4 C 5,9 C 0,0 C 91 % 0 % 0 lf 1007,3 hPa 0,0 l/m 0,00 h 0,00 h 0,000 mm 0,0 UV-I 0 W/m 15,5 km/h (3 Bft) 0,00 %
10.12.2012 09:00 10,8 C 3,5 C -21,1 C 5,9 C 0,0 C 90 % 0 % 0 lf 1008,0 hPa 0,0 l/m 0,00 h 0,00 h 0,000 mm 0,0 UV-I 0 W/m 10,7 km/h (2 Bft) 0,00 %
10.12.2012 10:00 10,9 C 3,6 C -21,6 C 5,9 C 0,0 C 90 % 0 % 0 lf 1008,6 hPa 0,0 l/m 0,00 h 0,00 h 0,000 mm 0,0 UV-I 0 W/m 12,7 km/h (3 Bft) 0,00 %
10.12.2012 11:00 11,0 C 3,6 C 6,5 C 5,9 C 0,0 C 91 % 0 % 0 lf 1009,5 hPa 0,1 l/m 0,00 h 0,00 h 0,000 mm 0,0 UV-I 0 W/m 12,4 km/h (3 Bft) 0,00 %
10.12.2012 12:00 11,1 C 4,0 C -22,6 C 5,9 C 0,0 C 92 % 0 % 0 lf 1010,3 hPa 0,0 l/m 0,00 h 0,00 h 0,000 mm 0,1 UV-I 0 W/m 12,6 km/h (3 Bft) 0,00 %
10.12.2012 13:00 11,3 C 4,4 C -3,8 C 5,9 C 0,0 C 92 % 0 % 0 lf 1011,0 hPa 0,0 l/m 0,00 h 0,00 h 0,000 mm 0,1 UV-I 0 W/m 16,3 km/h (3 Bft) 0,00 %
10.12.2012 14:00 11,3 C 4,0 C -7,2 C 5,9 C 0,0 C 90 % 0 % 0 lf 1011,9 hPa 0,1 l/m 0,00 h 0,00 h 0,000 mm 0,0 UV-I 0 W/m 33,4 km/h (5 Bft) 0,00 %
10.12.2012 15:00 11,2 C 3,3 C -7,3 C 5,2 C 0,0 C 90 % 0 % 0 lf 1013,1 hPa 0,0 l/m 0,00 h 0,00 h 0,000 mm 0,0 UV-I 0 W/m 29,6 km/h (5 Bft) 0,00 %
10.12.2012 16:00 11,2 C 2,8 C -21,2 C 0,2 C 0,0 C 85 % 0 % 0 lf 1014,3 hPa 0,0 l/m 0,00 h 0,00 h 0,000 mm 0,0 UV-I 0 W/m 40,1 km/h (6 Bft) 0,00 %
10.12.2012 17:00 11,0 C 2,3 C -19,5 C 0,1 C 0,0 C 84 % 0 % 0 lf 1015,6 hPa 0,0 l/m 0,00 h 0,00 h 0,000 mm 0,0 UV-I 0 W/m 29,5 km/h (5 Bft) 0,00 %
10.12.2012 18:00 11,0 C 1,9 C -21,2 C -0,2 C 0,0 C 86 % 0 % 0 lf 1016,4 hPa 0,0 l/m 0,00 h 0,00 h 0,000 mm 0,0 UV-I 0 W/m 16,2 km/h (3 Bft) 0,00 %
10.12.2012 19:00 11,0 C 1,6 C -23,0 C -0,5 C 0,0 C 87 % 0 % 0 lf 1017,4 hPa 0,0 l/m 0,00 h 0,00 h 0,000 mm 0,0 UV-I 0 W/m 14,4 km/h (3 Bft) 0,00 %
10.12.2012 20:00 11,0 C 1,6 C -19,6 C -0,5 C 0,0 C 87 % 0 % 0 lf 1018,0 hPa 0,0 l/m 0,00 h 0,00 h 0,000 mm 0,0 UV-I 0 W/m 15,7 km/h (3 Bft) 0,00 %
10.12.2012 21:00 11,0 C 1,5 C -16,1 C -0,7 C 0,0 C 88 % 0 % 0 lf 1018,3 hPa 0,0 l/m 0,00 h 0,00 h 0,000 mm 0,0 UV-I 0 W/m 12,3 km/h (3 Bft) 0,00 %
10.12.2012 22:00 11,0 C 1,3 C -17,8 C -0,9 C 0,0 C 89 % 0 % 0 lf 1018,8 hPa 0,0 l/m 0,00 h 0,00 h 0,000 mm 0,0 UV-I 0 W/m 10,1 km/h (2 Bft) 0,00 %
10.12.2012 23:00 11,0 C 1,2 C -21,3 C -1,0 C 0,0 C 89 % 0 % 0 lf 1018,9 hPa 0,0 l/m 0,00 h 0,00 h 0,000 mm 0,0 UV-I 0 W/m 11,3 km/h (2 Bft) 0,00 %
11.12.2012 00:00 11,0 C 1,1 C -23,1 C -1,2 C 0,0 C 88 % 0 % 0 lf 1019,3 hPa 0,0 l/m 0,00 h 0,00 h 0,000 mm 0,0 UV-I 0 W/m 17,9 km/h (3 Bft) 0,00 %
11.12.2012 01:00 11,0 C 0,9 C -21,4 C -1,4 C 0,0 C 88 % 0 % 0 lf 1019,8 hPa 0,0 l/m 0,00 h 0,00 h 0,000 mm 0,0 UV-I 0 W/m 13,0 km/h (3 Bft) 0,00 %
11.12.2012 02:00 11,0 C 0,8 C -21,4 C -1,1 C 0,0 C 88 % 0 % 0 lf 1020,1 hPa 0,0 l/m 0,00 h 0,00 h 0,000 mm 0,0 UV-I 0 W/m 19,0 km/h (3 Bft) 0,00 %
11.12.2012 03:00 11,0 C 0,7 C -17,9 C -1,2 C 0,0 C 89 % 0 % 0 lf 1020,4 hPa 0,0 l/m 0,00 h 0,00 h 0,000 mm 0,0 UV-I 0 W/m 20,9 km/h (4 Bft) 0,00 %
11.12.2012 04:00 10,9 C 0,6 C -20,2 C -1,3 C 0,0 C 90 % 0 % 0 lf 1020,9 hPa 0,0 l/m 0,00 h 0,00 h 0,000 mm 0,0 UV-I 0 W/m 23,9 km/h (4 Bft) 0,00 %
11.12.2012 05:00 10,8 C 0,4 C -21,5 C -1,6 C 0,0 C 92 % 0 % 0 lf 1021,5 hPa 0,0 l/m 0,00 h 0,00 h 0,000 mm 0,0 UV-I 0 W/m 22,2 km/h (4 Bft) 0,00 %
11.12.2012 06:00 10,8 C 0,4 C -21,5 C -1,4 C 0,0 C 93 % 0 % 0 lf 1022,6 hPa 0,0 l/m 0,00 h 0,00 h 0,000 mm 0,0 UV-I 0 W/m 16,8 km/h (3 Bft) 0,00 %
11.12.2012 07:00 10,8 C 0,6 C -21,2 C -1,2 C 0,0 C 93 % 0 % 0 lf 1023,2 hPa 0,0 l/m 0,00 h 0,00 h 0,000 mm 0,0 UV-I 0 W/m 16,1 km/h (3 Bft) 0,00 %
11.12.2012 08:00 10,8 C 0,8 C -23,1 C -1,1 C 0,0 C 92 % 0 % 0 lf 1023,6 hPa 0,0 l/m 0,00 h 0,00 h 0,000 mm 0,0 UV-I 0 W/m 23,0 km/h (4 Bft) 0,00 %
11.12.2012 09:00 10,8 C 0,5 C -19,7 C -1,4 C 0,0 C 88 % 0 % 0 lf 1024,1 hPa 0,0 l/m 0,00 h 0,00 h 0,000 mm 0,0 UV-I 0 W/m 26,0 km/h (4 Bft) 0,00 %
11.12.2012 10:00 10,8 C 0,2 C -21,5 C -2,2 C 0,0 C 87 % 0 % 0 lf 1024,9 hPa 0,0 l/m 0,00 h 0,00 h 0,000 mm 0,1 UV-I 0 W/m 15,1 km/h (3 Bft) 0,00 %
11.12.2012 11:00 10,8 C 0,9 C -23,1 C -1,8 C 0,2 C 85 % 0 % 0 lf 1025,4 hPa 0,0 l/m 0,00 h 0,00 h 0,000 mm 0,2 UV-I 0 W/m 17,0 km/h (3 Bft) 0,00 %
11.12.2012 12:00 10,9 C 1,2 C -23,1 C -1,3 C 0,2 C 79 % 0 % 0 lf 1025,3 hPa 0,0 l/m 0,00 h 0,00 h 0,000 mm 0,3 UV-I 0 W/m 22,5 km/h (4 Bft) 0,00 %
11.12.2012 13:00 11,1 C 1,2 C -23,1 C -0,7 C 0,1 C 77 % 0 % 0 lf 1025,7 hPa 0,0 l/m 0,00 h 0,00 h 0,000 mm 0,1 UV-I 0 W/m 21,3 km/h (4 Bft) 0,00 %
11.12.2012 14:00 11,2 C 1,0 C -23,1 C -0,7 C 0,0 C 76 % 0 % 0 lf 1026,2 hPa 0,0 l/m 0,00 h 0,00 h 0,000 mm 0,0 UV-I 0 W/m 19,7 km/h (3 Bft) 0,00 %
11.12.2012 15:00 11,0 C 0,7 C -23,2 C -2,4 C 0,0 C 77 % 0 % 0 lf 1025,8 hPa 0,0 l/m 0,00 h 0,00 h 0,000 mm 0,0 UV-I 0 W/m 6,3 km/h (2 Bft) 0,00 %
11.12.2012 16:00 10,5 C -0,4 C -23,3 C -4,4 C 0,0 C 79 % 0 % 0 lf 1025,8 hPa 0,0 l/m 0,00 h 0,00 h 0,000 mm 0,0 UV-I 0 W/m 0,0 km/h (0 Bft) 0,00 %
11.12.2012 17:00 10,2 C -1,6 C -22,8 C -5,9 C 0,0 C 83 % 0 % 0 lf 1026,0 hPa 0,0 l/m 0,00 h 0,00 h 0,000 mm 0,0 UV-I 0 W/m 0,0 km/h (0 Bft) 0,00 %
11.12.2012 18:00 10,4 C -1,3 C -21,6 C -4,7 C 0,0 C 86 % 0 % 0 lf 1025,7 hPa 0,0 l/m 0,00 h 0,00 h 0,000 mm 0,0 UV-I 0 W/m 0,0 km/h (0 Bft) 0,00 %
11.12.2012 19:00 10,3 C -1,0 C -21,6 C -4,5 C 0,0 C 87 % 0 % 0 lf 1025,5 hPa 0,0 l/m 0,00 h 0,00 h 0,000 mm 0,0 UV-I 0 W/m 0,6 km/h (0 Bft) 0,00 %
11.12.2012 20:00 10,4 C -0,7 C -23,3 C -4,3 C 0,0 C 87 % 0 % 0 lf 1025,3 hPa 0,0 l/m 0,00 h 0,00 h 0,000 mm 0,0 UV-I 0 W/m 0,9 km/h (0 Bft) 0,00 %
11.12.2012 21:00 10,3 C -0,4 C -19,8 C -3,7 C 0,0 C 87 % 0 % 0 lf 1025,1 hPa 0,0 l/m 0,00 h 0,00 h 0,000 mm 0,0 UV-I 0 W/m 5,4 km/h (1 Bft) 0,00 %
11.12.2012 22:00 10,4 C -0,6 C -23,3 C -4,3 C 0,0 C 88 % 0 % 0 lf 1025,0 hPa 0,0 l/m 0,00 h 0,00 h 0,000 mm 0,0 UV-I 0 W/m 4,0 km/h (1 Bft) 0,00 %
11.12.2012 23:00 10,4 C -1,0 C -20,2 C -4,5 C 0,0 C 88 % 0 % 0 lf 1024,5 hPa 0,0 l/m 0,00 h 0,00 h 0,000 mm 0,0 UV-I 0 W/m 4,1 km/h (1 Bft) 0,00 %
12.12.2012 00:00 10,2 C -1,0 C -20,5 C -4,4 C 0,0 C 89 % 0 % 0 lf 1024,2 hPa 0,0 l/m 0,00 h 0,00 h 0,000 mm 0,0 UV-I 0 W/m 4,6 km/h (1 Bft) 0,00 %
12.12.2012 01:00 10,3 C -0,9 C -18,1 C -3,9 C 0,0 C 89 % 0 % 0 lf 1023,8 hPa 0,0 l/m 0,00 h 0,00 h 0,000 mm 0,0 UV-I 0 W/m 6,0 km/h (2 Bft) 0,00 %
12.12.2012 02:00 10,3 C -0,6 C -21,6 C -3,5 C 0,0 C 88 % 0 % 0 lf 1023,2 hPa 0,0 l/m 0,00 h 0,00 h 0,000 mm 0,0 UV-I 0 W/m 8,3 km/h (2 Bft) 0,00 %
12.12.2012 03:00 10,2 C -0,5 C -19,8 C -3,3 C 0,0 C 88 % 0 % 0 lf 1023,1 hPa 0,0 l/m 0,00 h 0,00 h 0,000 mm 0,0 UV-I 0 W/m 12,7 km/h (3 Bft) 0,00 %
12.12.2012 04:00 10,1 C -0,4 C -23,2 C -2,9 C 0,0 C 88 % 0 % 0 lf 1022,3 hPa 0,0 l/m 0,00 h 0,00 h 0,000 mm 0,0 UV-I 0 W/m 14,6 km/h (3 Bft) 0,00 %
12.12.2012 05:00 10,1 C -0,2 C -23,2 C -2,7 C 0,0 C 87 % 0 % 0 lf 1021,4 hPa 0,0 l/m 0,00 h 0,00 h 0,000 mm 0,0 UV-I 0 W/m 14,4 km/h (3 Bft) 0,00 %
12.12.2012 06:00 10,0 C -0,2 C -21,5 C -2,5 C 0,0 C 86 % 0 % 0 lf 1020,9 hPa 0,0 l/m 0,00 h 0,00 h 0,000 mm 0,0 UV-I 0 W/m 13,1 km/h (3 Bft) 0,00 %
12.12.2012 07:00 10,0 C -0,1 C -23,2 C -2,6 C 0,0 C 84 % 0 % 0 lf 1020,6 hPa 0,0 l/m 0,00 h 0,00 h 0,000 mm 0,0 UV-I 0 W/m 15,9 km/h (3 Bft) 0,00 %
12.12.2012 08:00 9,8 C 0,2 C -23,2 C -2,5 C 0,0 C 82 % 0 % 0 lf 1020,6 hPa 0,0 l/m 0,00 h 0,00 h 0,000 mm 0,0 UV-I 0 W/m 15,3 km/h (3 Bft) 0,00 %
12.12.2012 09:00 9,9 C 0,2 C -19,8 C -2,8 C 0,0 C 84 % 0 % 0 lf 1020,5 hPa 0,0 l/m 0,00 h 0,00 h 0,000 mm 0,0 UV-I 0 W/m 13,5 km/h (3 Bft) 0,00 %
12.12.2012 10:00 10,0 C 0,4 C -21,5 C -2,8 C 0,0 C 84 % 0 % 0 lf 1020,5 hPa 0,0 l/m 0,00 h 0,00 h 0,000 mm 0,0 UV-I 0 W/m 20,3 km/h (4 Bft) 0,00 %
12.12.2012 11:00 10,0 C 0,9 C -23,2 C -1,4 C 0,0 C 82 % 0 % 0 lf 1020,5 hPa 0,0 l/m 0,00 h 0,00 h 0,000 mm 0,0 UV-I 0 W/m 15,9 km/h (3 Bft) 0,00 %
12.12.2012 12:00 10,2 C 1,3 C -23,1 C -0,2 C 0,0 C 81 % 0 % 0 lf 1019,9 hPa 0,0 l/m 0,00 h 0,00 h 0,000 mm 0,1 UV-I 0 W/m 12,7 km/h (3 Bft) 0,00 %
12.12.2012 13:00 10,5 C 2,4 C -23,0 C 1,1 C 0,2 C 79 % 0 % 0 lf 1019,5 hPa 0,0 l/m 0,00 h 0,00 h 0,000 mm 0,2 UV-I 0 W/m 13,4 km/h (3 Bft) 0,00 %
12.12.2012 14:00 11,3 C 2,7 C -23,0 C 0,7 C 0,1 C 77 % 0 % 0 lf 1019,8 hPa 0,0 l/m 0,00 h 0,00 h 0,000 mm 0,1 UV-I 0 W/m 12,3 km/h (3 Bft) 0,00 %
12.12.2012 15:00 11,3 C 2,0 C -23,1 C -0,2 C 0,0 C 78 % 0 % 0 lf 1019,0 hPa 0,0 l/m 0,00 h 0,00 h 0,000 mm 0,0 UV-I 0 W/m 5,8 km/h (2 Bft) 0,00 %
12.12.2012 16:00 10,9 C 1,2 C -23,2 C -2,0 C 0,0 C 79 % 0 % 0 lf 1018,7 hPa 0,0 l/m 0,00 h 0,00 h 0,000 mm 0,0 UV-I 0 W/m 4,0 km/h (1 Bft) 0,00 %
12.12.2012 17:00 10,6 C 0,5 C -23,3 C -3,5 C 0,0 C 80 % 0 % 0 lf 1018,3 hPa 0,0 l/m 0,00 h 0,00 h 0,000 mm 0,0 UV-I 0 W/m 4,0 km/h (1 Bft) 0,00 %
12.12.2012 18:00 10,4 C 0,1 C -23,3 C -4,1 C 0,0 C 78 % 0 % 0 lf 1017,9 hPa 0,0 l/m 0,00 h 0,00 h 0,000 mm 0,0 UV-I 0 W/m 2,3 km/h (1 Bft) 0,00 %
12.12.2012 19:00 10,4 C -0,1 C -23,3 C -4,3 C 0,0 C 78 % 0 % 0 lf 1017,3 hPa 0,0 l/m 0,00 h 0,00 h 0,000 mm 0,0 UV-I 0 W/m 2,5 km/h (1 Bft) 0,00 %
12.12.2012 20:00 10,4 C -0,1 C -23,3 C -4,1 C 0,0 C 79 % 0 % 0 lf 1017,1 hPa 0,0 l/m 0,00 h 0,00 h 0,000 mm 0,0 UV-I 0 W/m 2,7 km/h (1 Bft) 0,00 %
12.12.2012 21:00 10,3 C -0,1 C -23,3 C -4,1 C 0,0 C 79 % 0 % 0 lf 1017,0 hPa 0,0 l/m 0,00 h 0,00 h 0,000 mm 0,0 UV-I 0 W/m 1,6 km/h (1 Bft) 0,00 %
12.12.2012 22:00 10,4 C -0,8 C -19,9 C -5,0 C 0,0 C 80 % 0 % 0 lf 1016,7 hPa 0,0 l/m 0,00 h 0,00 h 0,000 mm 0,0 UV-I 0 W/m 1,9 km/h (1 Bft) 0,00 %
12.12.2012 23:00 10,3 C -1,5 C -19,9 C -5,2 C 0,0 C 83 % 0 % 0 lf 1016,5 hPa 0,0 l/m 0,00 h 0,00 h 0,000 mm 0,0 UV-I 0 W/m 5,0 km/h (1 Bft) 0,00 %
13.12.2012 00:00 10,3 C -2,0 C -19,8 C -5,2 C 0,0 C 86 % 0 % 0 lf 1016,0 hPa 0,0 l/m 0,00 h 0,00 h 0,000 mm 0,0 UV-I 0 W/m 6,0 km/h (2 Bft) 0,00 %
13.12.2012 01:00 10,3 C -2,2 C -23,4 C -4,8 C 0,0 C 87 % 0 % 0 lf 1015,4 hPa 0,0 l/m 0,00 h 0,00 h 0,000 mm 0,0 UV-I 0 W/m 4,2 km/h (1 Bft) 0,00 %
13.12.2012 02:00 10,2 C -2,1 C -23,4 C -4,4 C 0,0 C 88 % 0 % 0 lf 1014,8 hPa 0,0 l/m 0,00 h 0,00 h 0,000 mm 0,0 UV-I 0 W/m 8,1 km/h (2 Bft) 0,00 %
13.12.2012 03:00 10,2 C -2,1 C -23,4 C -4,5 C 0,0 C 88 % 0 % 0 lf 1014,1 hPa 0,0 l/m 0,00 h 0,00 h 0,000 mm 0,0 UV-I 0 W/m 5,8 km/h (2 Bft) 0,00 %
13.12.2012 04:00 10,2 C -2,1 C -23,4 C -4,3 C 0,0 C 88 % 0 % 0 lf 1013,1 hPa 0,0 l/m 0,00 h 0,00 h 0,000 mm 0,0 UV-I 0 W/m 6,1 km/h (2 Bft) 0,00 %
13.12.2012 05:00 10,2 C -2,1 C -23,4 C -4,3 C 0,0 C 87 % 0 % 0 lf 1012,2 hPa 0,0 l/m 0,00 h 0,00 h 0,000 mm 0,0 UV-I 0 W/m 4,7 km/h (1 Bft) 0,00 %
13.12.2012 06:00 10,2 C -2,1 C -23,4 C -4,4 C 0,0 C 86 % 0 % 0 lf 1011,4 hPa 0,0 l/m 0,00 h 0,00 h 0,000 mm 0,0 UV-I 0 W/m 7,8 km/h (2 Bft) 0,00 %
13.12.2012 07:00 10,1 C -2,0 C -23,4 C -4,4 C 0,0 C 83 % 0 % 0 lf 1010,8 hPa 0,0 l/m 0,00 h 0,00 h 0,000 mm 0,0 UV-I 0 W/m 13,0 km/h (3 Bft) 0,00 %
13.12.2012 08:00 10,0 C -2,1 C -23,4 C -4,6 C 0,0 C 81 % 0 % 0 lf 1010,0 hPa 0,0 l/m 0,00 h 0,00 h 0,000 mm 0,0 UV-I 0 W/m 11,5 km/h (2 Bft) 0,00 %
13.12.2012 09:00 9,9 C -1,9 C -23,4 C -4,2 C 0,0 C 80 % 0 % 0 lf 1009,8 hPa 0,0 l/m 0,00 h 0,00 h 0,000 mm 0,0 UV-I 0 W/m 13,9 km/h (3 Bft) 0,00 %
13.12.2012 10:00 9,8 C -1,5 C -23,4 C -3,3 C 0,0 C 78 % 0 % 0 lf 1009,7 hPa 0,0 l/m 0,00 h 0,00 h 0,000 mm 0,0 UV-I 0 W/m 12,4 km/h (3 Bft) 0,00 %
13.12.2012 11:00 9,9 C -0,9 C -23,2 C -2,6 C 0,1 C 77 % 0 % 0 lf 1009,2 hPa 0,0 l/m 0,00 h 0,00 h 0,000 mm 0,1 UV-I 0 W/m 15,4 km/h (3 Bft) 0,00 %
13.12.2012 12:00 10,2 C 0,1 C -23,2 C -2,1 C 0,1 C 75 % 0 % 0 lf 1008,8 hPa 0,0 l/m 0,00 h 0,00 h 0,000 mm 0,1 UV-I 0 W/m 18,0 km/h (3 Bft) 0,00 %
13.12.2012 13:00 10,4 C 0,4 C -23,2 C -1,6 C 0,0 C 75 % 0 % 0 lf 1007,9 hPa 0,0 l/m 0,00 h 0,00 h 0,000 mm 0,0 UV-I 0 W/m 19,7 km/h (3 Bft) 0,00 %
13.12.2012 14:00 10,4 C 0,5 C -23,2 C -1,7 C 0,0 C 76 % 0 % 0 lf 1007,3 hPa 0,0 l/m 0,00 h 0,00 h 0,000 mm 0,0 UV-I 0 W/m 17,3 km/h (3 Bft) 0,00 %
13.12.2012 15:00 10,4 C 0,5 C -23,2 C -2,2 C 0,0 C 77 % 0 % 0 lf 1006,9 hPa 0,0 l/m 0,00 h 0,00 h 0,000 mm 0,0 UV-I 0 W/m 13,7 km/h (3 Bft) 0,00 %
13.12.2012 16:00 10,3 C 0,3 C -23,2 C -2,5 C 0,0 C 79 % 0 % 0 lf 1006,5 hPa 0,0 l/m 0,00 h 0,00 h 0,000 mm 0,0 UV-I 0 W/m 14,7 km/h (3 Bft) 0,00 %
13.12.2012 17:00 10,2 C 0,2 C -19,8 C -2,6 C 0,0 C 80 % 0 % 0 lf 1006,2 hPa 0,0 l/m 0,00 h 0,00 h 0,000 mm 0,0 UV-I 0 W/m 16,9 km/h (3 Bft) 0,00 %
13.12.2012 18:00 10,2 C -0,0 C -19,8 C -2,9 C 0,0 C 82 % 0 % 0 lf 1005,9 hPa 0,0 l/m 0,00 h 0,00 h 0,000 mm 0,0 UV-I 0 W/m 16,8 km/h (3 Bft) 0,00 %
13.12.2012 19:00 10,1 C 0,2 C -23,2 C -2,2 C 0,0 C 83 % 0 % 0 lf 1005,7 hPa 0,0 l/m 0,00 h 0,00 h 0,000 mm 0,0 UV-I 0 W/m 20,1 km/h (4 Bft) 0,00 %
13.12.2012 20:00 10,2 C 0,3 C -14,6 C -3,1 C 0,0 C 83 % 0 % 0 lf 1005,4 hPa 0,0 l/m 0,00 h 0,00 h 0,000 mm 0,0 UV-I 0 W/m 18,2 km/h (3 Bft) 0,00 %
13.12.2012 21:00 10,2 C 0,4 C 1,0 C -2,9 C 0,0 C 85 % 0 % 0 lf 1005,5 hPa 0,0 l/m 0,00 h 0,00 h 0,000 mm 0,0 UV-I 0 W/m 16,6 km/h (3 Bft) 0,00 %
13.12.2012 22:00 10,2 C 0,5 C -16,3 C -2,3 C 0,0 C 86 % 0 % 0 lf 1005,2 hPa 0,0 l/m 0,00 h 0,00 h 0,000 mm 0,0 UV-I 0 W/m 15,8 km/h (3 Bft) 0,00 %
13.12.2012 23:00 10,3 C 0,7 C -11,1 C -2,1 C 0,0 C 87 % 0 % 0 lf 1005,0 hPa 0,0 l/m 0,00 h 0,00 h 0,000 mm 0,0 UV-I 0 W/m 14,1 km/h (3 Bft) 0,00 %
14.12.2012 00:00 10,3 C 0,8 C -13,9 C -2,5 C 0,0 C 89 % 0 % 0 lf 1005,0 hPa 0,0 l/m 0,00 h 0,00 h 0,000 mm 0,0 UV-I 0 W/m 12,0 km/h (2 Bft) 0,00 %
14.12.2012 01:00 10,3 C 1,1 C -5,9 C -2,1 C 0,0 C 90 % 0 % 0 lf 1004,8 hPa 0,0 l/m 0,00 h 0,00 h 0,000 mm 0,0 UV-I 0 W/m 14,9 km/h (3 Bft) 0,00 %
14.12.2012 02:00 10,4 C 1,1 C -21,4 C -1,8 C 0,0 C 91 % 0 % 0 lf 1004,6 hPa 0,0 l/m 0,00 h 0,00 h 0,000 mm 0,0 UV-I 0 W/m 14,0 km/h (3 Bft) 0,00 %
14.12.2012 03:00 10,4 C 1,3 C -19,7 C -1,6 C 0,0 C 91 % 0 % 0 lf 1004,0 hPa 0,0 l/m 0,00 h 0,00 h 0,000 mm 0,0 UV-I 0 W/m 14,0 km/h (3 Bft) 0,00 %
14.12.2012 04:00 10,6 C 1,5 C -23,1 C -1,4 C 0,0 C 92 % 0 % 0 lf 1003,8 hPa 0,0 l/m 0,00 h 0,00 h 0,000 mm 0,0 UV-I 0 W/m 13,9 km/h (3 Bft) 0,00 %
14.12.2012 05:00 10,7 C 1,8 C -16,2 C -1,1 C 0,0 C 92 % 0 % 0 lf 1003,6 hPa 0,0 l/m 0,00 h 0,00 h 0,000 mm 0,0 UV-I 0 W/m 12,5 km/h (3 Bft) 0,00 %
14.12.2012 06:00 10,7 C 2,0 C -16,1 C -0,8 C 0,0 C 92 % 0 % 0 lf 1003,7 hPa 0,0 l/m 0,00 h 0,00 h 0,000 mm 0,0 UV-I 0 W/m 15,1 km/h (3 Bft) 0,00 %
14.12.2012 07:00 10,7 C 2,3 C -19,6 C -0,8 C 0,0 C 93 % 0 % 0 lf 1002,9 hPa 0,0 l/m 0,00 h 0,00 h 0,000 mm 0,0 UV-I 0 W/m 13,4 km/h (3 Bft) 0,00 %
14.12.2012 08:00 10,8 C 2,4 C -19,6 C -1,1 C 0,0 C 94 % 0 % 0 lf 1001,9 hPa 0,0 l/m 0,00 h 0,00 h 0,000 mm 0,0 UV-I 0 W/m 19,5 km/h (3 Bft) 0,00 %
14.12.2012 09:00 10,8 C 2,7 C -21,2 C -0,5 C 0,0 C 93 % 0 % 0 lf 1001,1 hPa 0,0 l/m 0,00 h 0,00 h 0,000 mm 0,0 UV-I 0 W/m 23,0 km/h (4 Bft) 0,00 %
14.12.2012 10:00 10,9 C 3,3 C -19,3 C 0,4 C 0,0 C 93 % 0 % 0 lf 1000,5 hPa 0,0 l/m 0,00 h 0,00 h 0,000 mm 0,0 UV-I 0 W/m 21,4 km/h (4 Bft) 0,00 %
14.12.2012 11:00 11,1 C 4,1 C -21,1 C 1,8 C 0,0 C 92 % 0 % 0 lf 1000,2 hPa 0,0 l/m 0,00 h 0,00 h 0,000 mm 0,0 UV-I 0 W/m 20,5 km/h (4 Bft) 0,00 %
14.12.2012 12:00 11,2 C 4,8 C -22,8 C 2,9 C 0,0 C 91 % 0 % 0 lf 998,7 hPa 0,0 l/m 0,00 h 0,00 h 0,000 mm 0,0 UV-I 0 W/m 18,7 km/h (3 Bft) 0,00 %
14.12.2012 13:00 11,4 C 5,3 C -21,0 C 3,0 C 0,0 C 90 % 0 % 0 lf 996,8 hPa 0,0 l/m 0,00 h 0,00 h 0,000 mm 0,0 UV-I 0 W/m 21,0 km/h (4 Bft) 0,00 %
14.12.2012 14:00 11,4 C 5,4 C -20,9 C 2,7 C 0,0 C 88 % 0 % 0 lf 995,1 hPa 0,0 l/m 0,00 h 0,00 h 0,000 mm 0,0 UV-I 0 W/m 24,7 km/h (4 Bft) 0,00 %
14.12.2012 15:00 11,4 C 5,6 C -14,2 C 2,6 C 0,0 C 88 % 0 % 0 lf 993,6 hPa 0,0 l/m 0,00 h 0,00 h 0,000 mm 0,0 UV-I 0 W/m 26,7 km/h (4 Bft) 0,00 %
14.12.2012 16:00 11,3 C 5,6 C 7,4 C 2,2 C 0,0 C 91 % 0 % 0 lf 992,5 hPa 3,0 l/m 0,00 h 0,00 h 0,000 mm 0,0 UV-I 0 W/m 30,0 km/h (5 Bft) 0,00 %
14.12.2012 17:00 11,2 C 5,4 C -22,8 C 2,1 C 0,0 C 94 % 0 % 0 lf 991,2 hPa 3,5 l/m 0,00 h 0,00 h 0,000 mm 0,0 UV-I 0 W/m 28,1 km/h (4 Bft) 0,00 %
14.12.2012 18:00 11,2 C 5,4 C -10,8 C 2,2 C 0,0 C 96 % 0 % 0 lf 990,0 hPa 4,1 l/m 0,00 h 0,00 h 0,000 mm 0,0 UV-I 0 W/m 24,6 km/h (4 Bft) 0,00 %
14.12.2012 19:00 11,2 C 5,7 C -22,8 C 2,5 C 0,0 C 96 % 0 % 0 lf 989,2 hPa 2,4 l/m 0,00 h 0,00 h 0,000 mm 0,0 UV-I 0 W/m 27,1 km/h (4 Bft) 0,00 %
14.12.2012 20:00 11,3 C 6,1 C -0,5 C 2,7 C 0,0 C 97 % 0 % 0 lf 988,6 hPa 0,4 l/m 0,00 h 0,00 h 0,000 mm 0,0 UV-I 0 W/m 22,2 km/h (4 Bft) 0,00 %
14.12.2012 21:00 11,4 C 6,4 C 7,5 C 2,8 C 0,0 C 97 % 0 % 0 lf 989,0 hPa 1,6 l/m 0,00 h 0,00 h 0,000 mm 0,0 UV-I 0 W/m 12,2 km/h (2 Bft) 0,00 %
14.12.2012 22:00 11,6 C 6,7 C -9,0 C 3,0 C 0,0 C 97 % 0 % 0 lf 989,8 hPa 0,1 l/m 0,00 h 0,00 h 0,000 mm 0,0 UV-I 0 W/m 9,5 km/h (2 Bft) 0,00 %
14.12.2012 23:00 11,7 C 7,7 C -19,2 C 4,3 C 0,0 C 97 % 0 % 0 lf 990,0 hPa 0,0 l/m 0,00 h 0,00 h 0,000 mm 0,0 UV-I 0 W/m 11,2 km/h (2 Bft) 0,00 %
15.12.2012 00:00 11,8 C 8,3 C -22,6 C 3,2 C 0,0 C 97 % 0 % 0 lf 991,0 hPa 0,0 l/m 0,00 h 0,00 h 0,000 mm 0,0 UV-I 0 W/m 3,6 km/h (1 Bft) 0,00 %
15.12.2012 01:00 11,9 C 8,5 C -22,6 C 3,0 C 0,0 C 96 % 0 % 0 lf 991,3 hPa 0,0 l/m 0,00 h 0,00 h 0,000 mm 0,0 UV-I 0 W/m 8,0 km/h (2 Bft) 0,00 %
15.12.2012 02:00 12,0 C 9,1 C -22,5 C 3,7 C 0,0 C 94 % 0 % 0 lf 991,5 hPa 0,0 l/m 0,00 h 0,00 h 0,000 mm 0,0 UV-I 0 W/m 7,7 km/h (2 Bft) 0,00 %
15.12.2012 03:00 11,9 C 9,3 C -8,8 C 4,8 C 0,0 C 92 % 0 % 0 lf 992,4 hPa 0,6 l/m 0,00 h 0,00 h 0,000 mm 0,0 UV-I 0 W/m 9,8 km/h (2 Bft) 0,00 %
15.12.2012 04:00 12,1 C 8,7 C -22,5 C 4,5 C 0,0 C 93 % 0 % 0 lf 992,5 hPa 0,0 l/m 0,00 h 0,00 h 0,000 mm 0,0 UV-I 0 W/m 7,1 km/h (2 Bft) 0,00 %
15.12.2012 05:00 12,2 C 8,6 C -22,6 C 4,3 C 0,0 C 93 % 0 % 0 lf 993,1 hPa 0,0 l/m 0,00 h 0,00 h 0,000 mm 0,0 UV-I 0 W/m 4,7 km/h (1 Bft) 0,00 %
15.12.2012 06:00 12,2 C 8,0 C -22,7 C 3,4 C 0,0 C 93 % 0 % 0 lf 994,0 hPa 0,0 l/m 0,00 h 0,00 h 0,000 mm 0,0 UV-I 0 W/m 2,1 km/h (1 Bft) 0,00 %
15.12.2012 07:00 12,2 C 7,0 C -22,8 C 1,6 C 0,0 C 94 % 0 % 0 lf 994,8 hPa 0,0 l/m 0,00 h 0,00 h 0,000 mm 0,0 UV-I 0 W/m 0,9 km/h (0 Bft) 0,00 %
15.12.2012 08:00 12,1 C 6,4 C -22,8 C 0,3 C 0,0 C 94 % 0 % 0 lf 995,9 hPa 0,0 l/m 0,00 h 0,00 h 0,000 mm 0,0 UV-I 0 W/m 1,5 km/h (1 Bft) 0,00 %
15.12.2012 09:00 12,1 C 6,9 C -22,7 C 1,6 C 0,0 C 95 % 0 % 0 lf 996,7 hPa 0,0 l/m 0,00 h 0,00 h 0,000 mm 0,0 UV-I 0 W/m 2,7 km/h (1 Bft) 0,00 %
15.12.2012 10:00 12,2 C 7,7 C -22,6 C 3,3 C 0,0 C 94 % 0 % 0 lf 998,0 hPa 0,0 l/m 0,00 h 0,00 h 0,000 mm 0,0 UV-I 0 W/m 6,4 km/h (2 Bft) 0,00 %
15.12.2012 11:00 12,3 C 8,6 C -22,5 C 4,6 C 0,0 C 92 % 0 % 0 lf 998,8 hPa 0,0 l/m 0,00 h 0,00 h 0,000 mm 0,0 UV-I 0 W/m 7,6 km/h (2 Bft) 0,00 %
15.12.2012 12:00 12,5 C 9,6 C -22,4 C 6,4 C 0,1 C 89 % 0 % 0 lf 998,9 hPa 0,0 l/m 0,00 h 0,00 h 0,000 mm 0,2 UV-I 0 W/m 9,8 km/h (2 Bft) 0,00 %
15.12.2012 13:00 12,9 C 10,4 C -22,3 C 6,8 C 0,1 C 84 % 0 % 0 lf 998,7 hPa 0,0 l/m 0,00 h 0,00 h 0,000 mm 0,2 UV-I 0 W/m 12,9 km/h (3 Bft) 0,00 %
15.12.2012 14:00 13,2 C 10,4 C -22,3 C 7,0 C 0,0 C 82 % 0 % 0 lf 999,3 hPa 0,0 l/m 0,00 h 0,00 h 0,000 mm 0,0 UV-I 0 W/m 13,3 km/h (3 Bft) 0,00 %
15.12.2012 15:00 13,2 C 10,2 C -22,3 C 6,5 C 0,0 C 82 % 0 % 0 lf 999,4 hPa 0,0 l/m 0,00 h 0,00 h 0,000 mm 0,0 UV-I 0 W/m 6,8 km/h (2 Bft) 0,00 %
15.12.2012 16:00 13,2 C 9,8 C -22,4 C 5,6 C 0,0 C 83 % 0 % 0 lf 1000,3 hPa 0,0 l/m 0,00 h 0,00 h 0,000 mm 0,0 UV-I 0 W/m 5,6 km/h (1 Bft) 0,00 %
15.12.2012 17:00 13,0 C 9,2 C -22,5 C 4,8 C 0,0 C 85 % 0 % 0 lf 1000,4 hPa 0,0 l/m 0,00 h 0,00 h 0,000 mm 0,0 UV-I 0 W/m 6,2 km/h (2 Bft) 0,00 %
15.12.2012 18:00 12,9 C 9,2 C -22,5 C 5,4 C 0,0 C 86 % 0 % 0 lf 1000,8 hPa 0,0 l/m 0,00 h 0,00 h 0,000 mm 0,0 UV-I 0 W/m 5,6 km/h (1 Bft) 0,00 %
15.12.2012 19:00 12,8 C 9,2 C -22,5 C 5,4 C 0,0 C 86 % 0 % 0 lf 1000,7 hPa 0,0 l/m 0,00 h 0,00 h 0,000 mm 0,0 UV-I 0 W/m 7,6 km/h (2 Bft) 0,00 %
15.12.2012 20:00 12,8 C 8,3 C -22,6 C 3,7 C 0,0 C 86 % 0 % 0 lf 1000,7 hPa 0,0 l/m 0,00 h 0,00 h 0,000 mm 0,0 UV-I 0 W/m 2,9 km/h (1 Bft) 0,00 %
15.12.2012 21:00 12,7 C 7,9 C -17,4 C 3,4 C 0,0 C 88 % 0 % 0 lf 1000,9 hPa 0,0 l/m 0,00 h 0,00 h 0,000 mm 0,0 UV-I 0 W/m 6,8 km/h (2 Bft) 0,00 %
15.12.2012 22:00 12,7 C 8,1 C -22,5 C 3,8 C 0,0 C 89 % 0 % 0 lf 1000,8 hPa 0,0 l/m 0,00 h 0,00 h 0,000 mm 0,0 UV-I 0 W/m 7,8 km/h (2 Bft) 0,00 %
15.12.2012 23:00 12,6 C 7,9 C -12,3 C 4,0 C 0,0 C 90 % 0 % 0 lf 1000,6 hPa 0,0 l/m 0,00 h 0,00 h 0,000 mm 0,0 UV-I 0 W/m 8,5 km/h (2 Bft) 0,00 %
16.12.2012 00:00 12,6 C 7,7 C 12,9 C 4,5 C 0,0 C 92 % 0 % 0 lf 1000,8 hPa 1,1 l/m 0,00 h 0,00 h 0,000 mm 0,0 UV-I 0 W/m 7,7 km/h (2 Bft) 0,00 %
16.12.2012 01:00 12,6 C 7,5 C -17,4 C 4,5 C 0,0 C 93 % 0 % 0 lf 1000,5 hPa 0,1 l/m 0,00 h 0,00 h 0,000 mm 0,0 UV-I 0 W/m 6,0 km/h (2 Bft) 0,00 %
16.12.2012 02:00 12,6 C 7,7 C -22,6 C 4,5 C 0,0 C 93 % 0 % 0 lf 1001,0 hPa 0,0 l/m 0,00 h 0,00 h 0,000 mm 0,0 UV-I 0 W/m 8,7 km/h (2 Bft) 0,00 %
16.12.2012 03:00 12,6 C 8,2 C -22,5 C 4,9 C 0,0 C 92 % 0 % 0 lf 1001,1 hPa 0,0 l/m 0,00 h 0,00 h 0,000 mm 0,0 UV-I 0 W/m 8,1 km/h (2 Bft) 0,00 %
16.12.2012 04:00 12,6 C 8,3 C 10,0 C 5,1 C 0,0 C 91 % 0 % 0 lf 1001,3 hPa 0,4 l/m 0,00 h 0,00 h 0,000 mm 0,0 UV-I 0 W/m 10,1 km/h (2 Bft) 0,00 %
16.12.2012 05:00 12,6 C 7,9 C 3,2 C 5,0 C 0,0 C 93 % 0 % 0 lf 1001,6 hPa 0,4 l/m 0,00 h 0,00 h 0,000 mm 0,0 UV-I 0 W/m 9,3 km/h (2 Bft) 0,00 %
16.12.2012 06:00 12,6 C 7,7 C -3,7 C 4,9 C 0,0 C 93 % 0 % 0 lf 1002,0 hPa 0,2 l/m 0,00 h 0,00 h 0,000 mm 0,0 UV-I 0 W/m 9,0 km/h (2 Bft) 0,00 %
16.12.2012 07:00 12,5 C 7,7 C -15,7 C 4,6 C 0,0 C 93 % 0 % 0 lf 1002,4 hPa 0,1 l/m 0,00 h 0,00 h 0,000 mm 0,0 UV-I 0 W/m 7,4 km/h (2 Bft) 0,00 %
16.12.2012 08:00 12,4 C 7,6 C -6,6 C 4,7 C 0,0 C 94 % 0 % 0 lf 1002,9 hPa 0,2 l/m 0,00 h 0,00 h 0,000 mm 0,0 UV-I 0 W/m 7,1 km/h (2 Bft) 0,00 %
16.12.2012 09:00 12,4 C 7,7 C -22,6 C 4,7 C 0,0 C 94 % 0 % 0 lf 1002,9 hPa 0,1 l/m 0,00 h 0,00 h 0,000 mm 0,0 UV-I 0 W/m 4,7 km/h (1 Bft) 0,00 %
16.12.2012 10:00 12,6 C 8,1 C -6,5 C 5,8 C 0,0 C 93 % 0 % 0 lf 1003,2 hPa 0,0 l/m 0,00 h 0,00 h 0,000 mm 0,0 UV-I 0 W/m 7,3 km/h (2 Bft) 0,00 %
16.12.2012 11:00 12,8 C 8,3 C -3,7 C 6,0 C 0,0 C 93 % 0 % 0 lf 1003,6 hPa 0,2 l/m 0,00 h 0,00 h 0,000 mm 0,0 UV-I 0 W/m 10,0 km/h (2 Bft) 0,00 %
16.12.2012 12:00 12,8 C 8,3 C -10,5 C 6,1 C 0,0 C 93 % 0 % 0 lf 1003,6 hPa 0,0 l/m 0,00 h 0,00 h 0,000 mm 0,2 UV-I 0 W/m 6,3 km/h (2 Bft) 0,00 %
16.12.2012 13:00 13,1 C 8,8 C -5,3 C 6,7 C 0,0 C 92 % 0 % 0 lf 1003,1 hPa 0,4 l/m 0,00 h 0,00 h 0,000 mm 0,2 UV-I 0 W/m 7,8 km/h (2 Bft) 0,00 %
16.12.2012 14:00 13,2 C 8,5 C -17,3 C 5,8 C 0,0 C 92 % 0 % 0 lf 1002,9 hPa 0,1 l/m 0,00 h 0,00 h 0,000 mm 0,0 UV-I 0 W/m 4,4 km/h (1 Bft) 0,00 %
16.12.2012 15:00 13,2 C 8,3 C -13,9 C 5,9 C 0,0 C 93 % 0 % 0 lf 1002,9 hPa 0,0 l/m 0,00 h 0,00 h 0,000 mm 0,0 UV-I 0 W/m 5,6 km/h (1 Bft) 0,00 %
16.12.2012 16:00 13,2 C 8,1 C -15,7 C 5,5 C 0,0 C 93 % 0 % 0 lf 1003,3 hPa 0,0 l/m 0,00 h 0,00 h 0,000 mm 0,0 UV-I 0 W/m 5,1 km/h (1 Bft) 0,00 %
16.12.2012 17:00 13,0 C 7,7 C -22,6 C 4,7 C 0,0 C 94 % 0 % 0 lf 1003,4 hPa 0,0 l/m 0,00 h 0,00 h 0,000 mm 0,0 UV-I 0 W/m 2,6 km/h (1 Bft) 0,00 %
16.12.2012 18:00 12,9 C 7,7 C -22,5 C 4,9 C 0,0 C 94 % 0 % 0 lf 1003,7 hPa 0,0 l/m 0,00 h 0,00 h 0,000 mm 0,0 UV-I 0 W/m 6,0 km/h (2 Bft) 0,00 %
16.12.2012 19:00 12,8 C 7,7 C -22,6 C 4,7 C 0,0 C 94 % 0 % 0 lf 1003,5 hPa 0,0 l/m 0,00 h 0,00 h 0,000 mm 0,0 UV-I 0 W/m 4,3 km/h (1 Bft) 0,00 %
16.12.2012 20:00 12,8 C 7,5 C -22,6 C 4,5 C 0,0 C 94 % 0 % 0 lf 1003,5 hPa 0,1 l/m 0,00 h 0,00 h 0,000 mm 0,0 UV-I 0 W/m 0,9 km/h (0 Bft) 0,00 %
16.12.2012 21:00 12,8 C 7,2 C -22,7 C 3,7 C 0,0 C 94 % 0 % 0 lf 1003,5 hPa 0,0 l/m 0,00 h 0,00 h 0,000 mm 0,0 UV-I 0 W/m 0,3 km/h (0 Bft) 0,00 %
16.12.2012 22:00 12,9 C 6,9 C 13,3 C 3,9 C 0,0 C 94 % 0 % 0 lf 1003,5 hPa 0,5 l/m 0,00 h 0,00 h 0,000 mm 0,0 UV-I 0 W/m 0,7 km/h (0 Bft) 0,00 %
16.12.2012 23:00 12,9 C 6,7 C -7,2 C 3,2 C 0,0 C 95 % 0 % 0 lf 1003,2 hPa 0,0 l/m 0,00 h 0,00 h 0,000 mm 0,0 UV-I 0 W/m 0,9 km/h (0 Bft) 0,00 %
Min-Datum _ 12.12.12 13.12.12 11.12.12 11.12.12 10.12.12 13.12.12 10.12.12 10.12.12 14.12.12 - - - - - - 10.12.12 10.12.12
_ Min-Zeit 07:52 01:24 16:26 17:36 00:00 12:36 00:00 00:00 19:58 - - - - - - 00:12 00:00
Minimum _ 9,8 C -2,3 C -23,4 C -6,1 C 0,0 C 74 % 0 % 0 lf 988,6 hPa - - - - - - 0,0 km/h (0 Bft) 0,00 %
Max-Datum _ 15.12.12 15.12.12 16.12.12 15.12.12 11.12.12 14.12.12 10.12.12 10.12.12 11.12.12 14.12.12 10.12.12 10.12.12 10.12.12 11.12.12 10.12.12 10.12.12 10.12.12
_ Max-Zeit 15:00 13:48 15:30 13:58 11:48 19:46 00:00 00:00 14:38 18:00 00:00 00:00 00:00 11:48 00:00 16:48 00:00
Maximum _ 13,4 C 10,5 C 28,9 C 7,3 C 0,3 C 97 % 0 % 0 lf 1026,4 hPa 4,1 l/m 0,00 h 0,00 h 0,000 mm 0,3 UV-I 0 W/m 97,4 km/h
W (10 Bft)
0,00 %
Durchschnitt _ 11,2 C 3,3 C -18,0 C 0,5 C 0,0 C 88 % 0 % 0 lf 1008,8 hPa #20,8 l/m #0 min. #0 min. #0,000 mm 0,2 UV-I 0 W/m 12,0 km/h (2 Bft) 0,00 %
© 2012 W. Hausmann